• In United Kingdom
  • List of Countries
  • For 7 days
  • Water Temperature
  • Satellite Maps
  • Weather Map
  • Weather Widgets
  • user-avatar
    Login

    Hourly Weather Nadvornaya

    Today, 24 May, Thursday

    Time Temperature Precipitation Wind Pressure Humidity
    00:00 +19°C° 0 mm 1 mps 726 mmHg 84%
    01:00 +18°C° 0 mm 1 mps 726 mmHg 86%
    02:00 +18°C° 0 mm 1 mps 726 mmHg 87%
    03:00 +16°C° 0 mm 1 mps 726 mmHg 90%
    04:00 +16°C° 0 mm 2 mps 726 mmHg 92%
    05:00 +16°C° 0 mm 1 mps 726 mmHg 93%
    06:00 +16°C° 0 mm 1 mps 725 mmHg 93%
    07:00 +18°C° 0 mm 1 mps 726 mmHg 97%
    08:00 +18°C° 0 mm 1 mps 726 mmHg 100%
    09:00 +18°C° 0 mm 2 mps 726 mmHg 100%
    10:00 +18°C° 0 mm 2 mps 727 mmHg 100%
    11:00 +20°C° 0 mm 1 mps 727 mmHg 100%
    12:00 +22°C° 0 mm 1 mps 727 mmHg 93%
    13:00 +23°C° 0 mm 1 mps 726 mmHg 80%
    14:00 +23°C° 0 mm 1 mps 726 mmHg 76%
    15:00 +24°C° 0 mm 2 mps 725 mmHg 76%
    16:00 +22°C° 0 mm 3 mps 725 mmHg 77%
    17:00 +22°C° 0 mm 4 mps 725 mmHg 80%
    18:00 +21°C° 0 mm 5 mps 725 mmHg 95%
    19:00 +20°C° 0.3 mm 3 mps 725 mmHg 95%
    20:00 +19°C° 0.2 mm 3 mps 725 mmHg 98%
    21:00 +19°C° 0.5 mm 1 mps 725 mmHg 100%
    22:00 +18°C° 0 mm 1 mps 725 mmHg 100%
    23:00 +18°C° 0 mm 1 mps 725 mmHg 100%

    Tomorrow, 25 May, Friday

    Time Temperature Precipitation Wind Pressure Humidity
    00:00 +17°C° 0 mm 2 mps 725 mmHg 100%
    01:00 +18°C° 0 mm 1 mps 725 mmHg 100%
    02:00 +16°C° 0 mm 2 mps 725 mmHg 100%
    03:00 +16°C° 0 mm 2 mps 725 mmHg 100%
    04:00 +15°C° 0 mm 2 mps 725 mmHg 100%
    05:00 +15°C° 0 mm 2 mps 725 mmHg 100%
    06:00 +15°C° 0 mm 1 mps 725 mmHg 100%
    07:00 +15°C° 0 mm 1 mps 725 mmHg 100%
    08:00 +14°C° 0 mm 1 mps 725 mmHg 100%
    09:00 +14°C° 0 mm 1 mps 726 mmHg 100%
    10:00 +15°C° 0 mm 1 mps 726 mmHg 100%
    11:00 +15°C° 0 mm 1 mps 726 mmHg 100%
    12:00 +16°C° 0 mm 1 mps 726 mmHg 100%
    13:00 +17°C° 0 mm 2 mps 727 mmHg 99%
    14:00 +19°C° 0 mm 1 mps 727 mmHg 96%
    15:00 +19°C° 0 mm 2 mps 726 mmHg 91%
    16:00 +20°C° 0 mm 2 mps 726 mmHg 89%
    17:00 +20°C° 0 mm 2 mps 726 mmHg 87%
    18:00 +20°C° 0 mm 2 mps 726 mmHg 86%
    19:00 +19°C° 0 mm 2 mps 726 mmHg 94%
    20:00 +20°C° 0 mm 1 mps 727 mmHg 96%
    21:00 +19°C° 0 mm 1 mps 727 mmHg 95%
    22:00 +19°C° 0 mm 1 mps 727 mmHg 95%
    23:00 +18°C° 0.2 mm 1 mps 727 mmHg 99%

    Day after tomorrow, 26 May, Saturday

    Time Temperature Precipitation Wind Pressure Humidity
    00:00 +17°C° 0 mm 2 mps 728 mmHg 100%
    01:00 +17°C° 0.5 mm 2 mps 728 mmHg 100%
    02:00 +17°C° 0 mm 2 mps 728 mmHg 100%
    03:00 +17°C° 0 mm 2 mps 728 mmHg 100%
    04:00 +16°C° 0 mm 1 mps 728 mmHg 100%
    05:00 +16°C° 0 mm 1 mps 728 mmHg 100%
    06:00 +16°C° 0 mm 2 mps 728 mmHg 100%
    07:00 +15°C° 0 mm 4 mps 729 mmHg 100%
    08:00 +17°C° 0 mm 4 mps 729 mmHg 100%
    09:00 +17°C° 0 mm 3 mps 729 mmHg 100%
    10:00 +17°C° 0 mm 4 mps 730 mmHg 100%
    11:00 +17°C° 0 mm 4 mps 730 mmHg 100%
    12:00 +18°C° 0 mm 4 mps 730 mmHg 100%
    13:00 +18°C° 0 mm 4 mps 730 mmHg 99%
    14:00 +19°C° 0 mm 4 mps 730 mmHg 96%
    15:00 +20°C° 0 mm 4 mps 730 mmHg 93%
    16:00 +20°C° 0 mm 4 mps 730 mmHg 93%
    17:00 +20°C° 0 mm 4 mps 730 mmHg 92%
    18:00 +19°C° 0.1 mm 5 mps 730 mmHg 96%
    19:00 +19°C° 0 mm 5 mps 730 mmHg 93%
    20:00 +18°C° 0 mm 4 mps 730 mmHg 94%
    21:00 +16°C° 0 mm 5 mps 730 mmHg 99%
    22:00 +15°C° 0 mm 4 mps 730 mmHg 100%
    23:00 +15°C° 0 mm 4 mps 730 mmHg 100%

    27 May, Sunday

    Time Temperature Precipitation Wind Pressure Humidity
    00:00 +14°C° 0 mm 4 mps 730 mmHg 100%
    01:00 +14°C° 0 mm 3 mps 730 mmHg 100%
    02:00 +14°C° 0 mm 4 mps 730 mmHg 100%
    03:00 +13°C° 0 mm 4 mps 730 mmHg 100%
    04:00 +13°C° 0 mm 3 mps 729 mmHg 100%
    05:00 +12°C° 0 mm 3 mps 729 mmHg 100%
    06:00 +12°C° 0 mm 3 mps 729 mmHg 100%
    07:00 +12°C° 0 mm 4 mps 730 mmHg 100%
    08:00 +12°C° 0 mm 4 mps 730 mmHg 100%
    09:00 +13°C° 0 mm 4 mps 730 mmHg 100%
    10:00 +14°C° 0 mm 4 mps 730 mmHg 100%
    11:00 +15°C° 0 mm 4 mps 730 mmHg 99%
    12:00 +16°C° 0 mm 5 mps 730 mmHg 95%
    13:00 +16°C° 0 mm 5 mps 730 mmHg 96%
    14:00 +16°C° 0 mm 5 mps 730 mmHg 92%

    28 May, Monday

    Time Temperature Precipitation Wind Pressure Humidity

    29 May, Tuesday

    Time Temperature Precipitation Wind Pressure Humidity
    Show more